Time,TemperatureF,DewpointF,PressureIn,WindDirection,WindDirectionDegrees,WindSpeedMPH,WindSpeedGustMPH,Humidity,HourlyPrecipIn,Conditions,Clouds,dailyrainin,SoftwareType,DateUTC
2016-07-24 00:02:00,79.1,75.6,30.02,East,96,0.0,0.0,89,0.00,,---,0.00,VWS V14.01,2016-07-24 04:02:00,
2016-07-24 00:07:00,79.1,75.6,30.02,East,96,0.0,0.0,89,0.00,,---,0.00,VWS V14.01,2016-07-24 04:07:00,
2016-07-24 00:12:00,79.1,75.6,30.02,East,96,0.0,0.0,89,0.00,,---,0.00,VWS V14.01,2016-07-24 04:12:00,
2016-07-24 00:17:00,79.0,75.5,30.02,East,96,0.0,0.0,89,0.00,,---,0.00,VWS V14.01,2016-07-24 04:17:00,
2016-07-24 00:22:00,79.0,75.5,30.02,East,96,0.0,0.0,89,0.00,,---,0.00,VWS V14.01,2016-07-24 04:22:00,
2016-07-24 00:27:00,79.1,75.6,30.02,East,96,0.0,0.0,89,0.00,,---,0.00,VWS V14.01,2016-07-24 04:27:00,
2016-07-24 00:32:00,79.1,75.6,30.02,East,96,0.0,0.0,89,0.00,,---,0.00,VWS V14.01,2016-07-24 04:32:00,
2016-07-24 00:37:00,79.1,75.6,30.02,East,96,0.0,0.0,89,0.00,,---,0.00,VWS V14.01,2016-07-24 04:37:00,
2016-07-24 00:42:00,79.2,75.7,30.02,East,96,0.0,0.0,89,0.00,,---,0.00,VWS V14.01,2016-07-24 04:42:00,
2016-07-24 00:47:00,79.2,75.7,30.02,East,96,0.0,0.0,89,0.00,,---,0.00,VWS V14.01,2016-07-24 04:47:00,
2016-07-24 00:52:00,79.3,75.8,30.02,East,96,0.0,0.0,89,0.00,,---,0.00,VWS V14.01,2016-07-24 04:52:00,
2016-07-24 00:57:00,79.3,75.8,30.02,East,96,0.0,0.0,89,0.00,,---,0.00,VWS V14.01,2016-07-24 04:57:00,
2016-07-24 01:02:00,79.5,76.0,30.02,East,96,0.0,0.0,89,0.00,,---,0.00,VWS V14.01,2016-07-24 05:02:00,
2016-07-24 01:07:00,79.6,76.1,30.02,SE,129,0.0,2.0,89,0.00,,---,0.00,VWS V14.01,2016-07-24 05:07:00,
2016-07-24 01:12:00,79.3,75.1,30.02,NE,50,0.0,1.0,87,0.00,,---,0.00,VWS V14.01,2016-07-24 05:12:00,
2016-07-24 01:17:00,78.9,74.7,30.02,ESE,112,0.0,1.0,87,0.01,,---,0.01,VWS V14.01,2016-07-24 05:17:00,
2016-07-24 01:23:00,78.2,74.4,30.02,ESE,102,0.0,0.0,88,0.00,,---,0.01,VWS V14.01,2016-07-24 05:23:00,
2016-07-24 01:28:00,77.7,73.9,30.02,ESE,105,0.0,1.0,88,0.01,,---,0.01,VWS V14.01,2016-07-24 05:28:00,
2016-07-24 01:33:00,77.3,73.8,30.02,ESE,105,0.0,0.0,89,0.01,,---,0.01,VWS V14.01,2016-07-24 05:33:00,
2016-07-24 01:38:00,77.1,73.6,30.02,ESE,105,0.0,0.0,89,0.01,,---,0.01,VWS V14.01,2016-07-24 05:38:00,
2016-07-24 01:43:00,76.7,73.2,30.02,East,80,0.0,0.0,89,0.01,,---,0.01,VWS V14.01,2016-07-24 05:43:00,
2016-07-24 01:48:00,76.6,73.4,30.02,East,82,0.0,0.0,90,0.01,,---,0.01,VWS V14.01,2016-07-24 05:48:00,
2016-07-24 01:53:00,76.5,73.3,30.02,East,98,0.0,0.0,90,0.01,,---,0.01,VWS V14.01,2016-07-24 05:53:00,
2016-07-24 01:58:00,76.5,73.3,30.02,East,98,0.0,0.0,90,0.01,,---,0.01,VWS V14.01,2016-07-24 05:58:00,
2016-07-24 02:03:00,76.4,73.2,30.02,East,79,0.0,0.0,90,0.01,,---,0.01,VWS V14.01,2016-07-24 06:03:00,
2016-07-24 02:08:00,76.4,73.2,30.02,ENE,77,0.0,0.0,90,0.01,,---,0.01,VWS V14.01,2016-07-24 06:08:00,
2016-07-24 02:13:00,76.4,73.2,30.02,ENE,74,0.0,0.0,90,0.01,,---,0.01,VWS V14.01,2016-07-24 06:13:00,
2016-07-24 02:18:00,76.4,73.2,30.02,ENE,69,0.0,0.0,90,0.01,,---,0.01,VWS V14.01,2016-07-24 06:18:00,
2016-07-24 02:23:00,76.5,73.3,30.01,ENE,70,0.0,0.0,90,0.00,,---,0.01,VWS V14.01,2016-07-24 06:23:00,
2016-07-24 02:28:00,76.5,73.3,30.02,ENE,69,0.0,0.0,90,0.00,,---,0.01,VWS V14.01,2016-07-24 06:28:00,
2016-07-24 02:33:00,76.5,73.7,30.01,ENE,68,0.0,0.0,91,0.00,,---,0.01,VWS V14.01,2016-07-24 06:33:00,
2016-07-24 02:38:00,76.5,73.7,30.01,ENE,69,0.0,0.0,91,0.00,,---,0.01,VWS V14.01,2016-07-24 06:38:00,
2016-07-24 02:43:00,76.5,73.7,30.01,ENE,69,0.0,0.0,91,0.00,,---,0.01,VWS V14.01,2016-07-24 06:43:00,
2016-07-24 02:48:00,76.5,73.7,30.01,ENE,70,0.0,0.0,91,0.00,,---,0.01,VWS V14.01,2016-07-24 06:48:00,
2016-07-24 02:53:00,76.5,73.7,30.01,ENE,68,0.0,0.0,91,0.00,,---,0.01,VWS V14.01,2016-07-24 06:53:00,
2016-07-24 02:58:00,76.5,73.7,30.01,ENE,68,0.0,0.0,91,0.00,,---,0.01,VWS V14.01,2016-07-24 06:58:00,
2016-07-24 03:04:00,76.5,73.7,30.01,ENE,68,0.0,0.0,91,0.00,,---,0.01,VWS V14.01,2016-07-24 07:04:00,
2016-07-24 03:10:00,76.5,73.7,30.01,North,11,0.0,0.0,91,0.00,,---,0.01,VWS V14.01,2016-07-24 07:10:00,
2016-07-24 03:15:00,76.4,73.6,30.01,North,11,0.0,0.0,91,0.00,,---,0.01,VWS V14.01,2016-07-24 07:15:00,
2016-07-24 03:20:00,76.2,73.4,30.01,North,11,0.0,0.0,91,0.00,,---,0.01,VWS V14.01,2016-07-24 07:20:00,
2016-07-24 03:25:00,76.0,73.2,30.00,NNE,13,0.0,0.0,91,0.00,,---,0.01,VWS V14.01,2016-07-24 07:25:00,
2016-07-24 03:30:00,75.9,73.1,30.00,NNE,13,0.0,0.0,91,0.00,,---,0.01,VWS V14.01,2016-07-24 07:30:00,
2016-07-24 03:35:00,75.8,73.0,30.01,NNE,13,0.0,0.0,91,0.00,,---,0.01,VWS V14.01,2016-07-24 07:35:00,
2016-07-24 03:40:00,75.8,73.0,30.01,NNE,13,0.0,0.0,91,0.00,,---,0.01,VWS V14.01,2016-07-24 07:40:00,
2016-07-24 03:45:00,75.7,72.9,30.00,NNE,13,0.0,0.0,91,0.00,,---,0.01,VWS V14.01,2016-07-24 07:45:00,
2016-07-24 03:50:00,75.6,72.8,30.00,NNE,13,0.0,0.0,91,0.00,,---,0.01,VWS V14.01,2016-07-24 07:50:00,
2016-07-24 03:55:00,75.5,72.7,30.00,NNE,13,0.0,0.0,91,0.00,,---,0.01,VWS V14.01,2016-07-24 07:55:00,
2016-07-24 04:00:00,75.5,72.7,30.00,NNE,13,0.0,0.0,91,0.00,,---,0.01,VWS V14.01,2016-07-24 08:00:00,
2016-07-24 04:05:00,75.5,72.7,30.00,NNE,13,0.0,0.0,91,0.00,,---,0.01,VWS V14.01,2016-07-24 08:05:00,
2016-07-24 04:10:00,75.5,72.7,30.00,NNE,13,0.0,0.0,91,0.00,,---,0.01,VWS V14.01,2016-07-24 08:10:00,
2016-07-24 04:15:00,75.5,72.7,30.00,NNE,13,0.0,0.0,91,0.00,,---,0.01,VWS V14.01,2016-07-24 08:15:00,
2016-07-24 04:20:00,75.7,72.9,30.00,NNE,22,0.0,0.0,91,0.00,,---,0.01,VWS V14.01,2016-07-24 08:20:00,
2016-07-24 04:25:00,75.8,73.0,30.00,SE,131,0.0,0.0,91,0.00,,---,0.01,VWS V14.01,2016-07-24 08:25:00,
2016-07-24 04:30:00,75.5,72.7,30.00,South,186,0.0,1.0,91,0.00,,---,0.01,VWS V14.01,2016-07-24 08:30:00,
2016-07-24 04:35:00,76.0,72.5,30.00,NNW,347,0.0,0.0,89,0.00,,---,0.01,VWS V14.01,2016-07-24 08:35:00,
2016-07-24 04:40:00,76.6,72.8,30.00,WSW,257,4.0,4.0,88,0.00,,---,0.01,VWS V14.01,2016-07-24 08:40:00,
2016-07-24 04:45:00,77.2,73.0,30.00,SSW,204,0.0,0.0,87,0.00,,---,0.01,VWS V14.01,2016-07-24 08:45:00,
2016-07-24 04:50:00,77.6,73.4,30.00,NNE,27,0.0,0.0,87,0.00,,---,0.01,VWS V14.01,2016-07-24 08:50:00,
2016-07-24 04:55:00,77.7,73.9,30.00,SW,230,0.0,1.0,88,0.00,,---,0.01,VWS V14.01,2016-07-24 08:55:00,
2016-07-24 05:00:00,77.7,73.9,30.00,ENE,65,0.0,0.0,88,0.00,,---,0.01,VWS V14.01,2016-07-24 09:00:00,
2016-07-24 05:05:00,77.6,73.8,30.00,East,82,0.0,0.0,88,0.00,,---,0.01,VWS V14.01,2016-07-24 09:05:00,
2016-07-24 05:10:00,77.4,73.6,30.00,East,80,0.0,0.0,88,0.00,,---,0.01,VWS V14.01,2016-07-24 09:10:00,
2016-07-24 05:15:00,77.3,73.8,30.00,East,80,0.0,0.0,89,0.00,,---,0.01,VWS V14.01,2016-07-24 09:15:00,
2016-07-24 05:20:00,77.1,73.6,29.99,East,81,0.0,0.0,89,0.00,,---,0.01,VWS V14.01,2016-07-24 09:20:00,
2016-07-24 05:25:00,76.9,73.4,29.99,East,80,0.0,0.0,89,0.00,,---,0.01,VWS V14.01,2016-07-24 09:25:00,
2016-07-24 05:30:00,76.6,73.1,29.99,East,80,0.0,0.0,89,0.00,,---,0.01,VWS V14.01,2016-07-24 09:30:00,
2016-07-24 05:35:00,76.4,72.9,29.99,East,81,0.0,0.0,89,0.00,,---,0.01,VWS V14.01,2016-07-24 09:35:00,
2016-07-24 05:40:00,76.2,72.7,29.99,East,81,0.0,0.0,89,0.00,,---,0.01,VWS V14.01,2016-07-24 09:40:00,
2016-07-24 05:45:00,76.0,72.5,29.99,East,81,0.0,0.0,89,0.00,,---,0.01,VWS V14.01,2016-07-24 09:45:00,
2016-07-24 05:50:00,75.8,72.7,29.99,East,81,0.0,0.0,90,0.00,,---,0.01,VWS V14.01,2016-07-24 09:50:00,
2016-07-24 05:55:00,75.8,72.7,29.99,East,80,0.0,0.0,90,0.00,,---,0.01,VWS V14.01,2016-07-24 09:55:00,
2016-07-24 06:05:00,75.5,72.4,29.99,East,80,0.0,0.0,90,0.00,,---,0.01,VWS V14.01,2016-07-24 10:05:00,
2016-07-24 06:10:00,75.3,72.2,29.99,East,80,0.0,0.0,90,0.00,,---,0.01,VWS V14.01,2016-07-24 10:10:00,
2016-07-24 06:15:00,75.1,72.0,29.99,East,81,0.0,0.0,90,0.00,,---,0.01,VWS V14.01,2016-07-24 10:15:00,
2016-07-24 06:20:00,75.1,72.0,29.99,East,80,0.0,0.0,90,0.00,,---,0.01,VWS V14.01,2016-07-24 10:20:00,
2016-07-24 06:25:00,74.9,72.1,29.99,East,80,0.0,0.0,91,0.00,,---,0.01,VWS V14.01,2016-07-24 10:25:00,
2016-07-24 06:30:00,74.8,72.0,29.99,East,80,0.0,0.0,91,0.00,,---,0.01,VWS V14.01,2016-07-24 10:30:00,
2016-07-24 06:35:00,74.7,71.9,29.99,East,81,0.0,0.0,91,0.00,,---,0.01,VWS V14.01,2016-07-24 10:35:00,
2016-07-24 06:40:00,74.6,71.8,29.99,East,80,0.0,0.0,91,0.00,,---,0.01,VWS V14.01,2016-07-24 10:40:00,
2016-07-24 06:45:00,74.7,71.9,29.99,East,80,0.0,0.0,91,0.00,,---,0.01,VWS V14.01,2016-07-24 10:45:00,
2016-07-24 06:50:00,74.6,71.8,29.99,East,80,0.0,0.0,91,0.00,,---,0.01,VWS V14.01,2016-07-24 10:50:00,
2016-07-24 06:55:00,74.6,71.8,29.99,East,80,0.0,0.0,91,0.00,,---,0.01,VWS V14.01,2016-07-24 10:55:00,
2016-07-24 07:00:00,74.5,71.7,29.99,East,80,0.0,0.0,91,0.00,,---,0.01,VWS V14.01,2016-07-24 11:00:00,
2016-07-24 07:06:00,74.6,71.8,30.00,East,80,0.0,0.0,91,0.00,,---,0.01,VWS V14.01,2016-07-24 11:06:00,
2016-07-24 07:10:00,74.7,71.9,30.00,East,80,0.0,0.0,91,0.00,,---,0.01,VWS V14.01,2016-07-24 11:10:00,
2016-07-24 07:11:00,74.7,71.9,30.00,East,81,0.0,0.0,91,0.00,,---,0.01,VWS V14.01,2016-07-24 11:11:00,
2016-07-24 07:16:00,74.9,72.1,30.00,East,80,0.0,0.0,91,0.00,,---,0.01,VWS V14.01,2016-07-24 11:16:00,
2016-07-24 07:21:00,74.9,72.1,30.01,East,80,0.0,0.0,91,0.00,,---,0.01,VWS V14.01,2016-07-24 11:21:00,
2016-07-24 07:26:00,75.2,72.4,30.01,East,80,0.0,0.0,91,0.00,,---,0.01,VWS V14.01,2016-07-24 11:26:00,
2016-07-24 07:31:00,76.0,73.2,30.02,East,81,0.0,0.0,91,0.00,,---,0.01,VWS V14.01,2016-07-24 11:31:00,
2016-07-24 07:36:00,77.2,74.4,30.02,East,80,0.0,0.0,91,0.00,,---,0.01,VWS V14.01,2016-07-24 11:36:00,
2016-07-24 07:41:00,78.2,75.0,30.02,East,80,0.0,0.0,90,0.00,,---,0.01,VWS V14.01,2016-07-24 11:41:00,
2016-07-24 07:46:00,79.5,76.0,30.02,East,80,0.0,0.0,89,0.00,,---,0.01,VWS V14.01,2016-07-24 11:46:00,
2016-07-24 07:51:00,80.7,76.8,30.02,East,80,0.0,0.0,88,0.00,,---,0.01,VWS V14.01,2016-07-24 11:51:00,
2016-07-24 07:56:00,81.9,77.3,30.02,East,80,0.0,0.0,86,0.00,,---,0.01,VWS V14.01,2016-07-24 11:56:00,
2016-07-24 08:01:00,82.7,77.0,30.03,East,81,0.0,0.0,83,0.00,,---,0.01,VWS V14.01,2016-07-24 12:01:00,
2016-07-24 08:06:00,82.7,76.3,30.03,WNW,300,0.0,0.0,81,0.00,,---,0.01,VWS V14.01,2016-07-24 12:06:00,
2016-07-24 08:11:00,82.9,76.5,30.03,WNW,300,0.0,0.0,81,0.00,,---,0.01,VWS V14.01,2016-07-24 12:11:00,
2016-07-24 08:16:00,83.1,76.3,30.03,SSW,207,0.0,0.0,80,0.00,,---,0.01,VWS V14.01,2016-07-24 12:16:00,
2016-07-24 08:21:00,83.3,76.5,30.03,East,96,0.0,0.0,80,0.00,,---,0.01,VWS V14.01,2016-07-24 12:21:00,
2016-07-24 08:26:00,83.6,76.8,30.03,NE,34,0.0,0.0,80,0.00,,---,0.01,VWS V14.01,2016-07-24 12:26:00,
2016-07-24 08:36:00,83.7,76.9,30.04,NE,35,0.0,0.0,80,0.00,,---,0.01,VWS V14.01,2016-07-24 12:36:00,
2016-07-24 08:41:00,83.5,76.7,30.03,SE,125,0.0,0.0,80,0.00,,---,0.01,VWS V14.01,2016-07-24 12:41:00,
2016-07-24 08:46:00,83.8,77.0,30.03,NE,55,0.0,1.0,80,0.00,,---,0.01,VWS V14.01,2016-07-24 12:46:00,
2016-07-24 08:51:00,84.3,77.5,30.03,ENE,72,0.0,0.0,80,0.00,,---,0.01,VWS V14.01,2016-07-24 12:51:00,
2016-07-24 08:56:00,84.6,77.0,30.03,ENE,60,0.0,0.0,78,0.00,,---,0.01,VWS V14.01,2016-07-24 12:56:00,
2016-07-24 09:01:00,85.0,77.4,30.03,SE,127,0.0,2.0,78,0.00,,---,0.01,VWS V14.01,2016-07-24 13:01:00,
2016-07-24 09:06:00,85.3,77.7,30.04,NE,43,0.0,4.0,78,0.00,,---,0.01,VWS V14.01,2016-07-24 13:06:00,
2016-07-24 09:11:00,85.7,78.1,30.04,SSW,208,0.0,1.0,78,0.00,,---,0.01,VWS V14.01,2016-07-24 13:11:00,
2016-07-24 09:21:00,86.5,78.4,30.03,SSE,166,0.0,1.0,77,0.00,,---,0.01,VWS V14.01,2016-07-24 13:21:00,
2016-07-24 09:26:00,86.7,78.2,30.03,ENE,67,0.0,0.0,76,0.00,,---,0.01,VWS V14.01,2016-07-24 13:26:00,
2016-07-24 09:32:00,86.8,78.7,30.03,ENE,61,0.0,0.0,77,0.00,,---,0.01,VWS V14.01,2016-07-24 13:32:00,
2016-07-24 09:37:00,86.9,78.4,30.03,WSW,252,0.0,3.0,76,0.00,,---,0.01,VWS V14.01,2016-07-24 13:37:00,
2016-07-24 09:42:00,86.9,78.4,30.03,NE,47,0.0,2.0,76,0.00,,---,0.01,VWS V14.01,2016-07-24 13:42:00,
2016-07-24 09:47:00,86.8,77.1,30.03,East,94,0.0,6.0,73,0.00,,---,0.01,VWS V14.01,2016-07-24 13:47:00,
2016-07-24 09:52:00,87.2,77.1,30.03,NE,51,0.0,5.0,72,0.00,,---,0.01,VWS V14.01,2016-07-24 13:52:00,
2016-07-24 09:57:00,87.2,77.9,30.03,WSW,240,0.0,0.0,74,0.00,,---,0.01,VWS V14.01,2016-07-24 13:57:00,
2016-07-24 10:02:00,87.5,78.6,30.03,WSW,239,0.0,0.0,75,0.00,,---,0.01,VWS V14.01,2016-07-24 14:02:00,
2016-07-24 10:07:00,87.9,79.0,30.03,ENE,63,0.0,0.0,75,0.00,,---,0.01,VWS V14.01,2016-07-24 14:07:00,
2016-07-24 10:17:00,88.3,78.1,30.03,East,94,0.0,5.0,72,0.00,,---,0.01,VWS V14.01,2016-07-24 14:17:00,
2016-07-24 10:22:00,88.0,78.3,30.03,South,170,0.0,0.0,73,0.00,,---,0.01,VWS V14.01,2016-07-24 14:22:00,
2016-07-24 10:27:00,88.7,79.3,30.03,East,89,0.0,0.0,74,0.00,,---,0.01,VWS V14.01,2016-07-24 14:27:00,
2016-07-24 10:32:00,89.0,78.4,30.03,ENE,64,0.0,1.0,71,0.00,,---,0.01,VWS V14.01,2016-07-24 14:32:00,
2016-07-24 10:42:00,88.1,76.2,30.03,ESE,106,0.0,0.0,68,0.00,,---,0.01,VWS V14.01,2016-07-24 14:42:00,
2016-07-24 10:47:00,88.4,77.4,30.04,NE,47,0.0,0.0,70,0.00,,---,0.01,VWS V14.01,2016-07-24 14:47:00,
2016-07-24 10:52:00,88.5,76.2,30.04,NE,35,0.0,0.0,67,0.00,,---,0.01,VWS V14.01,2016-07-24 14:52:00,
2016-07-24 10:57:00,87.5,76.1,30.04,SSE,150,0.0,0.0,69,0.00,,---,0.01,VWS V14.01,2016-07-24 14:57:00,
2016-07-24 11:02:00,88.1,77.9,30.04,SE,146,0.0,0.0,72,0.00,,---,0.01,VWS V14.01,2016-07-24 15:02:00,
2016-07-24 11:07:00,88.9,77.8,30.03,SSE,158,0.0,0.0,70,0.00,,---,0.01,VWS V14.01,2016-07-24 15:07:00,
2016-07-24 11:12:00,89.9,78.4,30.03,ENE,71,0.0,0.0,69,0.00,,---,0.01,VWS V14.01,2016-07-24 15:12:00,
2016-07-24 11:17:00,90.3,78.8,30.03,East,81,0.0,0.0,69,0.00,,---,0.01,VWS V14.01,2016-07-24 15:17:00,
2016-07-24 11:32:00,88.9,78.7,30.04,SE,129,0.0,0.0,72,0.00,,---,0.01,VWS V14.01,2016-07-24 15:32:00,
2016-07-24 11:37:00,89.3,79.1,30.04,NW,309,0.0,1.0,72,0.00,,---,0.01,VWS V14.01,2016-07-24 15:37:00,
2016-07-24 11:42:00,89.7,77.7,30.04,NE,46,2.0,2.0,68,0.00,,---,0.01,VWS V14.01,2016-07-24 15:42:00,
2016-07-24 11:47:00,90.1,78.6,30.04,WSW,253,0.0,0.0,69,0.00,,---,0.01,VWS V14.01,2016-07-24 15:47:00,
2016-07-24 11:52:00,91.1,79.5,30.03,SSE,166,0.0,0.0,69,0.00,,---,0.01,VWS V14.01,2016-07-24 15:52:00,
2016-07-24 11:57:00,91.3,78.8,30.04,SSW,201,0.0,0.0,67,0.00,,---,0.01,VWS V14.01,2016-07-24 15:57:00,
2016-07-24 12:03:00,91.4,78.9,30.04,SW,215,0.0,0.0,67,0.00,,---,0.01,VWS V14.01,2016-07-24 16:03:00,
2016-07-24 12:08:00,91.0,78.5,30.04,NW,316,0.0,0.0,67,0.00,,---,0.01,VWS V14.01,2016-07-24 16:08:00,
2016-07-24 12:13:00,91.0,78.1,30.04,SSE,167,0.0,0.0,66,0.00,,---,0.01,VWS V14.01,2016-07-24 16:13:00,
2016-07-24 12:18:00,91.3,78.3,30.04,SSW,208,0.0,0.0,66,0.00,,---,0.01,VWS V14.01,2016-07-24 16:18:00,
2016-07-24 12:23:00,91.7,78.3,30.04,SE,143,0.0,1.0,65,0.00,,---,0.01,VWS V14.01,2016-07-24 16:23:00,
2016-07-24 12:28:00,91.7,78.7,30.04,SW,235,0.0,0.0,66,0.00,,---,0.01,VWS V14.01,2016-07-24 16:28:00,
2016-07-24 12:33:00,91.8,76.9,30.04,SSE,156,0.0,0.0,62,0.00,,---,0.01,VWS V14.01,2016-07-24 16:33:00,
2016-07-24 12:38:00,91.6,77.2,30.04,SW,221,0.0,0.0,63,0.00,,---,0.01,VWS V14.01,2016-07-24 16:38:00,
2016-07-24 12:43:00,91.9,78.0,30.04,South,184,0.0,1.0,64,0.00,,---,0.01,VWS V14.01,2016-07-24 16:43:00,
2016-07-24 12:48:00,92.0,77.1,30.04,SW,218,0.0,0.0,62,0.00,,---,0.01,VWS V14.01,2016-07-24 16:48:00,
2016-07-24 12:53:00,91.9,77.0,30.04,SW,214,0.0,1.0,62,0.00,,---,0.01,VWS V14.01,2016-07-24 16:53:00,
2016-07-24 12:58:00,92.0,76.1,30.04,WSW,243,0.0,0.0,60,0.00,,---,0.01,VWS V14.01,2016-07-24 16:58:00,
2016-07-24 13:00:00,91.9,76.0,30.04,ENE,65,0.0,0.0,60,0.00,,---,0.01,VWS V14.01,2016-07-24 17:00:00,
2016-07-24 13:03:00,92.1,76.2,30.04,East,91,0.0,0.0,60,0.00,,---,0.01,VWS V14.01,2016-07-24 17:03:00,
2016-07-24 13:08:00,92.7,78.7,30.04,ENE,73,0.0,1.0,64,0.00,,---,0.01,VWS V14.01,2016-07-24 17:08:00,
2016-07-24 13:13:00,92.9,78.9,30.04,NW,319,0.0,0.0,64,0.00,,---,0.01,VWS V14.01,2016-07-24 17:13:00,
2016-07-24 13:18:00,93.0,78.6,30.03,SSE,161,0.0,0.0,63,0.00,,---,0.01,VWS V14.01,2016-07-24 17:18:00,
2016-07-24 13:23:00,92.6,79.1,30.03,SSE,150,0.0,0.0,65,0.00,,---,0.01,VWS V14.01,2016-07-24 17:23:00,
2016-07-24 13:28:00,92.4,79.4,30.03,ESE,121,0.0,0.0,66,0.00,,---,0.01,VWS V14.01,2016-07-24 17:28:00,
2016-07-24 13:33:00,92.7,79.2,30.03,SSW,208,1.0,4.0,65,0.00,,---,0.01,VWS V14.01,2016-07-24 17:33:00,
2016-07-24 13:38:00,92.1,79.1,30.03,SE,142,0.0,2.0,66,0.00,,---,0.01,VWS V14.01,2016-07-24 17:38:00,
2016-07-24 13:43:00,91.9,79.4,30.03,SW,222,0.0,1.0,67,0.00,,---,0.01,VWS V14.01,2016-07-24 17:43:00,
2016-07-24 13:48:00,91.9,79.8,30.03,WNW,284,0.0,1.0,68,0.00,,---,0.01,VWS V14.01,2016-07-24 17:48:00,
2016-07-24 13:53:00,92.2,79.7,30.03,WSW,249,0.0,2.0,67,0.00,,---,0.01,VWS V14.01,2016-07-24 17:53:00,
2016-07-24 13:58:00,92.7,79.2,30.03,NE,46,0.0,1.0,65,0.00,,---,0.01,VWS V14.01,2016-07-24 17:58:00,
2016-07-24 14:00:00,92.4,78.9,30.03,SSW,211,0.0,2.0,65,0.00,,---,0.01,VWS V14.01,2016-07-24 18:00:00,
2016-07-24 14:03:00,91.5,78.5,30.02,SE,136,0.0,0.0,66,0.00,,---,0.01,VWS V14.01,2016-07-24 18:03:00,
2016-07-24 14:08:00,91.7,79.6,30.02,SSW,205,0.0,0.0,68,0.00,,---,0.01,VWS V14.01,2016-07-24 18:08:00,
2016-07-24 14:13:00,92.4,79.8,30.02,SE,134,0.0,0.0,67,0.00,,---,0.01,VWS V14.01,2016-07-24 18:13:00,
2016-07-24 14:18:00,92.7,80.1,30.02,SW,218,0.0,0.0,67,0.00,,---,0.01,VWS V14.01,2016-07-24 18:18:00,
2016-07-24 14:23:00,92.4,78.9,30.01,SSE,166,0.0,0.0,65,0.00,,---,0.01,VWS V14.01,2016-07-24 18:23:00,
2016-07-24 14:28:00,91.4,78.0,30.01,SSW,194,0.0,0.0,65,0.00,,---,0.01,VWS V14.01,2016-07-24 18:28:00,
2016-07-24 14:33:00,90.1,77.7,30.01,SSW,193,0.0,1.0,67,0.00,,---,0.01,VWS V14.01,2016-07-24 18:33:00,
2016-07-24 14:38:00,88.9,77.4,30.01,SW,224,0.0,0.0,69,0.00,,---,0.01,VWS V14.01,2016-07-24 18:38:00,
2016-07-24 14:43:00,88.1,77.1,30.00,SE,142,0.0,0.0,70,0.00,,---,0.01,VWS V14.01,2016-07-24 18:43:00,
2016-07-24 14:49:00,88.7,77.7,30.00,SE,145,0.0,0.0,70,0.00,,---,0.01,VWS V14.01,2016-07-24 18:49:00,
2016-07-24 14:54:00,89.2,78.1,30.00,SSW,208,0.0,0.0,70,0.00,,---,0.01,VWS V14.01,2016-07-24 18:54:00,
2016-07-24 14:59:00,89.9,78.8,30.00,SW,228,0.0,0.0,70,0.00,,---,0.01,VWS V14.01,2016-07-24 18:59:00,
2016-07-24 15:04:00,91.0,79.9,30.00,North,9,0.0,0.0,70,0.00,,---,0.01,VWS V14.01,2016-07-24 19:04:00,
2016-07-24 15:09:00,90.4,77.9,30.00,ESE,118,0.0,0.0,67,0.00,,---,0.01,VWS V14.01,2016-07-24 19:09:00,
2016-07-24 15:10:00,90.2,78.2,30.00,ESE,119,0.0,0.0,68,0.00,,---,0.01,VWS V14.01,2016-07-24 19:10:00,
2016-07-24 15:14:00,89.9,79.2,30.00,ENE,61,1.0,2.0,71,0.00,,---,0.01,VWS V14.01,2016-07-24 19:14:00,
2016-07-24 15:19:00,90.3,78.8,30.00,SSE,149,3.0,3.0,69,0.00,,---,0.01,VWS V14.01,2016-07-24 19:19:00,
2016-07-24 15:24:00,90.7,79.1,29.99,ESE,110,0.0,0.0,69,0.00,,---,0.01,VWS V14.01,2016-07-24 19:24:00,
2016-07-24 15:30:00,91.3,79.7,29.99,East,99,0.0,0.0,69,0.00,,---,0.01,VWS V14.01,2016-07-24 19:30:00,
2016-07-24 15:35:00,91.9,79.8,29.99,SSE,159,0.0,0.0,68,0.00,,---,0.01,VWS V14.01,2016-07-24 19:35:00,
2016-07-24 15:40:00,92.0,79.9,29.99,WSW,248,1.0,1.0,68,0.00,,---,0.01,VWS V14.01,2016-07-24 19:40:00,
2016-07-24 15:45:00,92.0,78.1,29.99,ESE,103,0.0,0.0,64,0.00,,---,0.01,VWS V14.01,2016-07-24 19:45:00,
2016-07-24 15:50:00,92.1,78.7,29.99,South,169,0.0,1.0,65,0.00,,---,0.01,VWS V14.01,2016-07-24 19:50:00,
2016-07-24 15:55:00,92.1,78.2,29.98,West,266,0.0,0.0,64,0.00,,---,0.01,VWS V14.01,2016-07-24 19:55:00,
2016-07-24 16:00:00,91.8,77.4,29.98,SE,127,0.0,1.0,63,0.00,,---,0.01,VWS V14.01,2016-07-24 20:00:00,
2016-07-24 16:05:00,91.3,78.3,29.98,SE,134,0.0,0.0,66,0.00,,---,0.01,VWS V14.01,2016-07-24 20:05:00,
2016-07-24 16:10:00,91.3,78.3,29.98,ESE,114,0.0,1.0,66,0.00,,---,0.01,VWS V14.01,2016-07-24 20:10:00,
2016-07-24 16:15:00,91.2,77.8,30.00,ESE,109,0.0,1.0,65,0.00,,---,0.01,VWS V14.01,2016-07-24 20:15:00,
2016-07-24 16:20:00,91.0,78.1,30.02,ESE,113,0.0,0.0,66,0.00,,---,0.01,VWS V14.01,2016-07-24 20:20:00,
2016-07-24 16:26:00,90.2,77.3,30.01,SE,139,0.0,0.0,66,0.00,,---,0.01,VWS V14.01,2016-07-24 20:26:00,
2016-07-24 16:36:00,88.1,76.2,30.01,West,273,0.0,0.0,68,0.00,,---,0.01,VWS V14.01,2016-07-24 20:36:00,
2016-07-24 16:41:00,87.2,76.7,30.02,East,84,0.0,0.0,71,0.00,,---,0.01,VWS V14.01,2016-07-24 20:41:00,
2016-07-24 16:46:00,86.5,76.4,30.01,East,94,0.0,0.0,72,0.00,,---,0.01,VWS V14.01,2016-07-24 20:46:00,
2016-07-24 16:57:00,85.2,76.0,30.00,West,278,0.0,0.0,74,0.00,,---,0.01,VWS V14.01,2016-07-24 20:57:00,
2016-07-24 17:02:00,84.6,75.4,30.01,WNW,289,0.0,0.0,74,0.00,,---,0.01,VWS V14.01,2016-07-24 21:02:00,
2016-07-24 17:07:00,84.1,74.9,30.00,SSW,200,0.0,0.0,74,0.00,,---,0.01,VWS V14.01,2016-07-24 21:07:00,
2016-07-24 17:12:00,83.8,74.6,30.00,SSW,203,0.0,0.0,74,0.00,,---,0.01,VWS V14.01,2016-07-24 21:12:00,
2016-07-24 17:17:00,83.5,74.3,30.01,WSW,242,0.0,0.0,74,0.00,,---,0.01,VWS V14.01,2016-07-24 21:17:00,
2016-07-24 17:22:00,83.4,74.7,30.01,WSW,242,0.0,0.0,75,0.00,,---,0.01,VWS V14.01,2016-07-24 21:22:00,
2016-07-24 17:27:00,83.4,75.1,30.01,WSW,241,0.0,0.0,76,0.00,,---,0.01,VWS V14.01,2016-07-24 21:27:00,
2016-07-24 17:32:00,83.2,74.5,30.01,WSW,242,0.0,0.0,75,0.00,,---,0.01,VWS V14.01,2016-07-24 21:32:00,
2016-07-24 17:37:00,83.0,74.3,30.01,WSW,242,0.0,0.0,75,0.00,,---,0.01,VWS V14.01,2016-07-24 21:37:00,
2016-07-24 17:43:00,82.9,74.6,30.01,WSW,242,0.0,0.0,76,0.00,,---,0.01,VWS V14.01,2016-07-24 21:43:00,
2016-07-24 17:48:00,82.4,73.3,30.01,ENE,64,0.0,3.0,74,0.00,,---,0.01,VWS V14.01,2016-07-24 21:48:00,
2016-07-24 17:52:00,80.9,73.0,30.01,NE,56,0.0,0.0,77,0.00,,---,0.01,VWS V14.01,2016-07-24 21:52:00,
2016-07-24 17:57:00,80.2,72.7,30.01,East,90,0.0,0.0,78,0.00,,---,0.01,VWS V14.01,2016-07-24 21:57:00,
2016-07-24 18:02:00,79.7,72.6,30.00,East,84,0.0,0.0,79,0.00,,---,0.01,VWS V14.01,2016-07-24 22:02:00,
2016-07-24 18:07:00,79.5,72.8,30.00,East,82,0.0,0.0,80,0.00,,---,0.01,VWS V14.01,2016-07-24 22:07:00,
2016-07-24 18:12:00,79.5,73.2,30.01,East,82,0.0,0.0,81,0.00,,---,0.01,VWS V14.01,2016-07-24 22:12:00,
2016-07-24 18:17:00,79.3,73.7,30.02,East,82,0.0,0.0,83,0.00,,---,0.01,VWS V14.01,2016-07-24 22:17:00,
2016-07-24 18:22:00,78.7,73.5,30.02,East,82,0.0,0.0,84,0.01,,---,0.02,VWS V14.01,2016-07-24 22:22:00,